Location: Antist
(43.1184°N, 0.1270°E)
Time: 16:55:57
(UTC+00:00)

STARLINK-1117 - Pass Details

Date: 19 January 2020
Orbit: 349 x 351 km, 53.0° (Epoch: 21 February)

Event Time Altitude Azimuth Distance (km) Brightness Sun altitude
Rises 18:00:48 0° 255° (WSW) 2,168 8.9 -12.1°
Reaches altitude 10° 18:02:55 10° 265° (W) 1,327 7.0 -12.5°
Maximum altitude 18:05:39 34° 332° (NNW) 617 4.0 -12.9°
Enters shadow 18:07:22 18° 29° (NNE) 958 4.5 -13.2°
